Regional Weather Roundup
Issued by NWS

Home | Current Version | Previous Version | Graphics & Text | Print | Product List | Glossary On
Versions: 1 2 3 4 5 6 7 8 9 10 11 12 13 14 15 16 17 18 19 20 21 22 23 24 25 26 27 28 29 30 31 32 33 34 35 36 37 38 39 40 41 42 43 44 45 46 47 48 49 50
000
ASUS43 KIND 211609
RWRIN

WEATHER ROUNDUP FOR INDIANA
NATIONAL WEATHER SERVICE INDIANAPOLIS IN
1200 PM EDT MON AUG 21 2017

NOTE: "FAIR" INDICATES FEW OR NO CLOUDS BELOW 12,000 FEET WITH NO
SIGNIFICANT WEATHER AND/OR OBSTRUCTIONS TO VISIBILITY.

* - STATION DOES NOT REPORT WEATHER SUCH AS PRECIPITATION OR FOG.

+ - STATION NOT QUALITY CONTROLLED BY THE NATIONAL WEATHER SERVICE.
    USE DATA WITH CAUTION...ESPECIALLY DEWPOINT AND RELATIVE
    HUMIDITY OBSERVATIONS.

INZ001>003-010>013-019-020-211700-
NORTHWEST INDIANA

CITY           SKY/WX    TMP DP  RH WIND       PRES   REMARKS
GARY /AIRPORT/ PTSUNNY   82  68  61 W14       30.09R
KNOX *+        MOSUNNY   81  72  74 W12       30.10R
LA PORTE +     MOSUNNY   81  71  71 W9        30.10R
MICHIGAN CITY+ MOSUNNY   81  68  65 W8        30.09R
MONTICELLO +   CLOUDY    80  74  83 SW7       30.10S
RENSSELAER +   MOSUNNY   82  68  61 W9        30.10S
VALPARAISO     SUNNY     82  72  71 SW12G20   30.10R

$$

LMZ046-743>745-211700-
SOUTHERN LAKE MICHIGAN

STATION/POSITION TIME  TEMP    WIND        PRES    WAVE
                       AIR SEA DIR/SP/G            HT
                 (UTC) (F)     (DEG/KT/KT) (MB)    (FT)
BURNS HARBOR     1540   77     260/  7/  9 1019.0R
MICHIGAN CITY    1540   76     230/ 11/ 12   N/A
5NW MICH CITY    1600   75 75  260/  8/ 10   N/A     1

$$

INZ004-005-014>016-021>024-211700-
NORTH CENTRAL INDIANA

CITY           SKY/WX    TMP DP  RH WIND       PRES   REMARKS
ELKHART        MOSUNNY   82  72  69 SW8       30.08S
GOSHEN         PTSUNNY   82  71  69 SW12      30.09S
LOGANSPORT +   MOSUNNY   79  73  83 SW6       30.11F
PERU/GRISSOM   PTSUNNY   81  76  85 W8        30.11R
ROCHESTER +    CLOUDY    84  73  70 SW8       30.11R
SOUTH BEND     MOSUNNY   82  72  71 SW12      30.09R
WARSAW +       MOSUNNY   81  72  74 SW5       30.10R

$$

INZ006>009-017-018-025>027-211700-
NORTHEAST INDIANA

CITY           SKY/WX    TMP DP  RH WIND       PRES   REMARKS
AUBURN +       MOSUNNY   82  68  61 SW7       30.11S
FORT WAYNE     CLOUDY    81  71  71 SW10      30.11S
HUNTINGTON +   PTSUNNY   82  74  79 SW6       30.11S

$$

INZ028-029-035-036-043>045-051>053-211700-
WEST CENTRAL INDIANA

CITY           SKY/WX    TMP DP  RH WIND       PRES   REMARKS
GREENCASTLE +  CLOUDY    82  72  69 CALM      30.14S
LAFAYETTE      MOSUNNY   82  75  79 SW6       30.10R
TERRE HAUTE    CLOUDY    86  73  65 VRB6      30.12S

$$

INZ030>032-037>040-046>048-054>057-064-065-211700-
CENTRAL INDIANA

CITY           SKY/WX    TMP DP  RH WIND       PRES   REMARKS
ANDERSON       MOSUNNY   82  72  69 MISG      30.13
CP ATTERBURY + MOSUNNY   88  68  51 SW9       30.14F
COLUMBUS       MOSUNNY   86  59  39 SW13      30.15S
FRANKFORT +    CLOUDY    85  76  74 W6        30.14R
GREENWOOD *+   PTSUNNY   84  69  61 W10G20    30.15R
INDIANAPOLIS   NOT AVBL
-EAGLE CREEK   CLOUDY    86  72  62 SW7       30.12S
KOKOMO +       PTSUNNY   81  75  82 SW9       30.13R
MT COMFORT *+  PTSUNNY   82  72  69 SW9       30.14S
SHELBYVILLE    MOSUNNY   86  71  60 SW12      30.13S
ZIONSVILLE +   PTSUNNY   82  74  77 SW9       30.14S

$$

INZ033-034-041-042-049-050-058-059-211700-
EAST CENTRAL INDIANA

CITY           SKY/WX    TMP DP  RH WIND       PRES   REMARKS
MUNCIE         CLOUDY    84  72  67 SW3       30.13S
RICHMOND +     MOSUNNY   82  70  65 SW9       30.17S

$$

INZ060-061-067>069-081>083-085>088-211700-
SOUTHWEST INDIANA

CITY           SKY/WX    TMP DP  RH WIND       PRES   REMARKS
EVANSVILLE     MOSUNNY   88  65  46 SW8       30.15S
HUNTINGBURG +  MOSUNNY   86  71  60 S8        30.16S
WASHINGTON +   PTSUNNY   87  63  44 MISG      30.14S

$$

INZ062-063-066-070>080-084-089>092-211700-
SOUTH CENTRAL AND SOUTHEAST INDIANA

CITY           SKY/WX    TMP DP  RH WIND       PRES   REMARKS
BEDFORD +      SUNNY     88  64  45 SW8       30.14F
BLOOMINGTON    MOSUNNY   87  71  58 SW14      30.14F
MADISON *+     SUNNY     86  66  51 S7        30.19F
NORTH VERNON + SUNNY     84  68  58 SW9       30.17S
SEYMOUR +      SUNNY     88  68  51 S6        30.14F

$$





USA.gov is the U.S. government's official web portal to all federal, state and local government web resources and services.